Location: Brantley
(31.5822°N, 86.2569°W)
Time: 20:14:26
(UTC+00:00)

Injun/Solrad 3 - Pass Details

Date: 23 February 2026
Orbit: 872 x 984 km, 66.8° (Epoch: 8 March)

Event Time Altitude Azimuth Distance (km) Brightness Sun altitude
Rises 00:12:43 0° 346° (NNW) 3,593 11.1 -8.2°
Reaches altitude 10° 00:15:38 10° 358° (N) 2,665 10.3 -8.8°
Maximum altitude 00:20:55 28° 57° (ENE) 1,712 8.8 -9.9°
Drops below altitude 10° 00:26:15 10° 114° (ESE) 2,712 9.8 -11.0°
Enters shadow 00:26:36 - 116° (ESE) 2,819 9.9 -11.1°
Sets 00:29:13 0° 126° (SE) 3,666 - -11.7°
